Ardmore, OK

5:27 AM CDT on August 17, 2017 (GMT -0500)
Ardmore Municipal

Weather History for KADM - November, 2010

Change the Weather History Date:

Monday, November 29, 2010

  Actual Average Record
Temperature  
Mean Temperature 52 °F -  
Max Temperature 64 °F 57 °F 84 °F (1998)
Min Temperature 41 °F 39 °F 23 °F (2013)
Degree Days  
Heating Degree Days 12    
Growing Degree Days 2 (Base 50)    
Moisture  
Dew Point 46 °F    
Average Humidity 78    
Maximum Humidity 100    
Minimum Humidity 30    
Precipitation  
Precipitation 0.10 in - - ()
Sea Level Pressure  
Sea Level Pressure 29.77 in    
Wind  
Wind Speed 11 mph (SSW)    
Max Wind Speed 17 mph    
Max Gust Speed 24 mph    
Visibility 9 miles    
Events Rain , Thunderstorm    
Averages and records for this station are not official NWS values.
T = Trace of Precipitation, MM = Missing Value Source: NWS Daily Summary

Daily Weather History Graph

Daily Weather History Graph

Search for Another Location

Airport or City:

Trip Planner

Search our weather history database for the weather conditions in past years. The results will help you decide how hot, cold, wet, or windy it might be!

Date:

Astronomy

Nov. 29, 2010 Rise Set
Actual Time 7:14 AM CST 5:18 PM CST
Civil Twilight 6:46 AM CST 5:45 PM CST
Nautical Twilight 6:15 AM CST 6:16 PM CST
Astronomical Twilight 5:45 AM CST 6:46 PM CST
Moon 12:38 AM CST (11/29) 1:06 PM CST (11/29)
Length of Visible Light 10h 58m
Length of Day
10h 04m
Last Quarter, 40% of the Moon is Illuminated
Nov 29
Last Quarter
Dec 5
New
Dec 13
First Quarter
Dec 21
Full
Dec 27
Last Quarter

Hourly Weather History & Observations

Time (CST) Temp. Windchill Dew Point Humidity Pressure Visibility Wind Dir Wind Speed Gust Speed Precip Events Conditions
12:10 AM 55.4 °F - 51.8 °F 88% 29.70 in 10.0 mi SSE 15.0 mph 20.7 mph N/A   Overcast
12:30 AM 55.4 °F - 51.8 °F 88% 29.70 in 10.0 mi SSE 15.0 mph 19.6 mph N/A   Overcast
12:50 AM 55.4 °F - 51.8 °F 88% 29.70 in 10.0 mi SSE 10.4 mph 16.1 mph N/A   Overcast
1:10 AM 55.4 °F - 51.8 °F 88% 29.70 in 10.0 mi SSE 12.7 mph - N/A   Overcast
1:30 AM 57.2 °F - 53.6 °F 88% 29.69 in 10.0 mi SSE 12.7 mph 16.1 mph N/A   Overcast
1:50 AM 59.0 °F - 53.6 °F 82% 29.69 in 10.0 mi SSE 12.7 mph 21.9 mph N/A   Overcast
2:10 AM 59.0 °F - 53.6 °F 82% 29.71 in 10.0 mi SSE 6.9 mph 16.1 mph N/A   Overcast
2:30 AM 59.0 °F - 53.6 °F 82% 29.72 in 10.0 mi South 5.8 mph - N/A   Overcast
2:50 AM 57.2 °F - 55.4 °F 94% 29.73 in 10.0 mi South 8.1 mph - N/A   Drizzle
3:10 AM 55.4 °F - 55.4 °F 100% 29.73 in 7.0 mi South 8.1 mph - N/A   Heavy Drizzle
3:30 AM 55.4 °F - 55.4 °F 100% 29.72 in 7.0 mi SSE 5.8 mph - 0.01 in Rain Rain
3:50 AM 55.4 °F - 55.4 °F 100% 29.72 in 7.0 mi SE 5.8 mph - 0.01 in   Overcast
4:10 AM 55.4 °F - 55.4 °F 100% 29.70 in 7.0 mi ESE 8.1 mph - N/A   Overcast
4:30 AM 55.4 °F - 55.4 °F 100% 29.69 in 7.0 mi ESE 6.9 mph - N/A   Overcast
4:50 AM 55.4 °F - 55.4 °F 100% 29.68 in 7.0 mi ESE 3.5 mph - N/A   Overcast
5:10 AM 55.4 °F - 55.4 °F 100% 29.67 in 7.0 mi SE 8.1 mph - N/A   Overcast
5:30 AM 55.4 °F - 55.4 °F 100% 29.67 in 7.0 mi SE 8.1 mph - N/A Thunderstorm Overcast
5:50 AM 55.4 °F - 55.4 °F 100% 29.67 in 7.0 mi SSE 8.1 mph - N/A   Overcast
6:10 AM 57.2 °F - 57.2 °F 100% 29.67 in 7.0 mi South 9.2 mph - N/A   Overcast
6:30 AM 59.0 °F - 59.0 °F 100% 29.69 in 4.0 mi West 10.4 mph - 0.09 in Rain Heavy Rain
7:55 AM 57.2 °F - 57.2 °F 100% 29.71 in 10.0 mi WSW 10.4 mph - N/A   Scattered Clouds
8:55 AM 57.2 °F - 53.6 °F 88% 29.74 in 10.0 mi WSW 11.5 mph - N/A   Clear
9:55 AM 57.2 °F - 44.6 °F 63% 29.75 in 10.0 mi West 16.1 mph - N/A   Clear
10:55 AM 60.8 °F - 37.4 °F 42% 29.76 in 10.0 mi West 13.8 mph 18.4 mph N/A   Clear
11:55 AM 62.6 °F - 35.6 °F 37% 29.74 in 10.0 mi West 13.8 mph 19.6 mph N/A   Clear
12:55 PM 64.4 °F - 32.0 °F 30% 29.74 in 10.0 mi West 10.4 mph 17.3 mph N/A   Clear
1:55 PM 64.4 °F - 32.0 °F 30% 29.73 in 10.0 mi West 10.4 mph - N/A   Clear
2:55 PM 62.6 °F - 32.0 °F 32% 29.74 in 10.0 mi West 11.5 mph 17.3 mph N/A   Clear
5:55 PM 50.0 °F - 33.8 °F 54% 29.83 in 10.0 mi NNW 8.1 mph - N/A   Clear
8:55 PM 44.6 °F 39.7 °F 32.0 °F 61% 29.98 in 10.0 mi NNW 9.2 mph 19.6 mph N/A   Scattered Clouds
10:30 PM 42.8 °F 37.0 °F 28.4 °F 57% 30.03 in 10.0 mi NNW 10.4 mph 20.7 mph N/A   Clear
10:50 PM 41.0 °F 33.9 °F 28.4 °F 61% 30.03 in 10.0 mi NW 12.7 mph 21.9 mph N/A   Clear
11:10 PM 41.0 °F 33.9 °F 28.4 °F 61% 30.06 in 10.0 mi NW 12.7 mph 18.4 mph N/A   Clear
11:30 PM 41.0 °F 32.5 °F 28.4 °F 61% 30.05 in 10.0 mi NNW 17.3 mph 24.2 mph N/A   Clear
11:50 PM 41.0 °F 32.8 °F 26.6 °F 57% 30.07 in 10.0 mi NNW 16.1 mph 24.2 mph N/A   Clear